[[{"header":{"parameterUnit":"m.s-1","parameterCategory":1,"la1":30.2991,"la2":30.254,"lo1":-89.0895,"lo2":-89.0444,"dy":0.0017,"dx":0.0017,"nx":28,"ny":28,"refTime":"2024-12-25T03:00:00:Z","depth":0,"parameterNumber":2,"parameterNumberName":"U-component_of_WINDS"},"data":[0,0,0,0,0,0,0,0,0,0,0,0,0,0,0,0,0,0,0,0,0,0,0,0,0,0,0,0,0,0,0,0,0,0,0,0,0,0,0,0,0,0,0,0,0,0,0,0,0,0,0,0,0,0,0,0,0,0,-6.0087,-6.0088,0,-6.0122,-6.0122,-6.0123,-6.0033,-6.003,-6.0027,-6.0025,-6.0058,-6.0062,-6.0065,0,0,0,0,0,0,0,0,0,0,0,0,0,-5.9943,-5.9946,-6.0087,-6.0088,-6.0088,-6.0122,-6.0122,-6.0123,-6.0034,-6.003,-6.0027,-6.0024,-6.0057,-6.0061,-6.0066,0,0,0,0,0,0,0,0,0,0,0,0,0,-5.9994,-5.9947,-6.0087,-6.0048,-6.0044,-6.0122,-6.0122,-6.0123,-6.0034,-6.003,-6.0026,-6.0022,-6.0056,-6.0061,-6.0066,-6.0183,0,0,-6.0082,-6.0085,0,0,0,0,0,0,0,0,-5.9992,-6.0,-6.0053,-6.0051,-6.0047,-6.0069,-6.0084,-6.0143,-6.0035,-6.0038,-6.0025,-6.002,-6.0065,-6.0069,-6.0085,-6.0184,-6.0186,-6.0083,-6.0086,-6.0088,-6.009,0,0,0,0,0,0,0,-5.9988,-5.9998,-6.0101,-6.0054,-6.005,-6.0028,-6.0031,-6.0095,-6.0075,-6.0038,-6.0031,-6.0037,-6.0063,-6.008,-6.0085,-6.0186,-6.0083,-6.0087,-6.0091,-6.0093,-6.0384,-6.0389,0,0,0,0,0,0,-5.999,-5.9995,-6.01,-6.0102,-6.0008,-6.0034,-6.0037,-6.0066,-6.0074,-6.0071,-6.004,-6.0032,-6.0073,-6.0079,-6.0086,-6.0223,-6.0088,-6.0093,-6.0096,-6.038,-6.0385,-6.039,0,0,0,0,0,0,-5.9987,-6.0,-6.0098,-6.0047,-6.0058,-6.0041,-6.0074,-6.0069,-6.0086,-6.0076,-6.0072,-6.0062,-6.007,-6.0079,-6.016,-6.0223,-6.0096,-6.01,-6.0374,-6.0381,-6.0388,-6.0498,0,0,0,0,0,0,-5.9983,-6.0,-6.0043,-6.0049,-6.0061,-6.0172,-6.0078,-6.0073,-6.0096,-6.0086,-6.0095,-6.0092,-6.0068,-6.0153,-6.0165,-6.0228,-6.0104,-6.0368,-6.0377,-6.0386,-6.0488,-6.0507,-6.0524,0,0,0,0,0,-5.9978,-6.0072,-6.0046,-6.0059,-6.0116,-6.0175,-6.0182,-6.0153,-6.0101,-6.0145,-6.0139,-6.0092,-6.0215,-6.0162,-6.0175,-6.024,-6.0364,-6.0375,-6.0385,-6.048,-6.0504,-6.0523,0,0,0,0,0,0,-6.0073,-6.0072,-6.0043,-6.0141,-6.016,-6.016,-6.0214,-6.0178,-6.021,-6.02,-6.0161,-6.0164,-6.0252,-6.0255,-6.0195,-6.0354,-6.0281,-6.0294,-6.0349,-6.0371,-6.0388,-6.0384,-6.0109,0,0,0,0,0,-6.0106,-6.0155,-6.0151,-6.0239,-6.0249,-6.0231,-6.0256,-6.0232,-6.0249,-6.0255,-6.0255,-6.0272,-6.0315,-6.0343,-6.0382,-6.049,-6.049,-6.0541,-6.0559,-6.0574,-6.0585,-6.0642,-6.0665,-6.0424,-6.0424,-6.0424,0,0,-6.0173,-6.0179,-6.0212,-6.0258,-6.0269,-6.032,-6.0238,-6.0295,-6.0333,-6.0264,-6.034,-6.0341,-6.0358,-6.0454,-6.0495,-6.0458,-6.0652,-6.0587,-6.0599,-6.0602,-6.0655,-6.0678,-6.0698,-6.0431,-6.043,-6.0429,0,0,-6.0321,-6.0331,-6.0405,-6.0419,-6.0437,-6.0425,-6.0443,-6.045,-6.0448,-6.0525,-6.0474,-6.0519,-6.0593,-6.0608,-6.0625,-6.0783,-6.0741,-6.0797,-6.0889,-6.0945,-6.0964,-6.098,-6.1036,-6.1056,-6.0809,-6.0809,-6.0809,0,-6.0401,-6.0477,-6.0447,-6.0509,-6.0531,-6.0473,-6.0547,-6.0562,-6.0592,-6.0608,-6.0567,-6.066,-6.0668,-6.0765,-6.0804,-6.0821,-6.084,-6.0794,-6.0964,-6.098,-6.0995,-6.1047,-6.1069,-6.0816,-6.0815,-6.0814,-6.0814,0,-6.0575,-6.0629,-6.0687,-6.0719,-6.0748,-6.0815,-6.0795,-6.0828,-6.0803,-6.0796,-6.0875,-6.0883,-6.0922,-6.0945,-6.092,-6.104,-6.1016,-6.0971,-6.0895,-6.1025,-6.1074,-6.1094,-6.0825,-6.0823,-6.0821,-6.0819,0,0,-6.0779,-6.0797,-6.0818,-6.0832,-6.0851,-6.0891,-6.0958,-6.0998,-6.1026,-6.1051,-6.1104,-6.117,-6.1129,-6.1149,-6.1126,-6.1176,-6.13,-6.1124,-6.1123,-6.1155,-6.1432,-6.1464,-6.1488,-6.1274,-6.1277,-6.128,-6.143,0,-6.0925,-6.1038,-6.1015,-6.1126,-6.1175,-6.1123,-6.1181,-6.1199,-6.1194,-6.1236,-6.1231,-6.1278,-6.122,-6.1232,-6.1279,-6.1275,-6.1354,-6.1264,-6.1322,-6.1325,-6.1316,-6.1513,-6.1547,-6.1687,-6.1448,-6.1452,-6.1454,0,-6.1108,-6.114,-6.1257,-6.1269,-6.1289,-6.1341,-6.1376,-6.1417,-6.1437,-6.143,-6.1455,-6.1423,-6.1489,-6.1416,-6.1506,-6.1445,-6.1468,-6.147,-6.1475,-6.1477,-6.1395,-6.1518,-6.1731,-6.1751,-6.1484,-6.1481,-6.1479,0,-6.1243,-6.1316,-6.1396,-6.141,-6.1426,-6.1464,-6.1473,-6.1489,-6.1515,-6.1546,-6.1563,-6.1602,-6.1622,-6.1653,-6.1633,-6.1582,-6.1727,-6.1652,-6.1722,-6.1723,-6.1752,-6.175,-6.1969,-6.1772,-6.1771,-6.1771,-6.1771,0,-6.1406,-6.1478,-6.1457,-6.1505,-6.1586,-6.156,-6.164,-6.1643,-6.1658,-6.1706,-6.1664,-6.171,-6.1682,-6.1726,-6.1712,-6.1788,-6.1798,-6.1794,-6.1789,-6.1796,-6.1797,-6.1808,-6.1797,-6.1777,-6.1775,-6.1774,-6.1773,0,-6.1568,-6.1557,-6.164,-6.165,-6.1655,-6.1714,-6.1722,-6.1767,-6.1762,-6.1824,-6.1837,-6.1827,-6.1877,-6.1862,-6.1915,-6.1905,-6.2002,-6.1985,-6.1995,-6.199,-6.206,-6.2053,-6.2292,-6.2322,-6.2108,-6.211,-6.2112,0,-6.1671,-6.1726,-6.1744,-6.1773,-6.1786,-6.1834,-6.1861,-6.1839,-6.1868,-6.1897,-6.1939,-6.1986,-6.2021,-6.2104,-6.2102,-6.2143,-6.2125,-6.2207,-6.2131,-6.2137,-6.2124,-6.212,-6.2125,-6.2221,-6.2223,-6.2225,-6.2227,0,-6.1854,-6.1847,-6.1888,-6.1929,-6.1963,-6.1993,-6.2019,-6.2046,-6.2025,-6.2062,-6.2113,-6.2141,-6.2197,-6.2244,-6.2282,-6.229,-6.2255,-6.2252,-6.2269,-6.2276,-6.2279,-6.2276,-6.2034,-6.2245,-6.2243,-6.2242,-6.2241,-6.224,-6.1988,-6.2035,-6.2055,-6.2103,-6.2122,-6.2148,-6.2192,-6.2193,-6.2236,-6.228,-6.2264,-6.2323,-6.2344,-6.2391,-6.2406,-6.2451,-6.242,-6.2446,-6.2452,-6.2458,-6.2466,-6.2275,-6.2458,-6.2458,-6.2457,-6.2457,-6.2456,0,-6.2167,-6.2179,-6.2224,-6.2263,-6.2301,-6.2268,-6.2297,-6.233,-6.2383,-6.2405,-6.2443,-6.2502,-6.2548,-6.2552,-6.2595,-6.2631,-6.2616,-6.2643,-6.2638,-6.2641,-6.2493,-6.2472,-6.2654,-6.2654,-6.2654,-6.2654,-6.2654,-6.2654,-6.2265,-6.2342,-6.2338,-6.2425,-6.2436,-6.2494,-6.2513,-6.2538,-6.2556,-6.2625,-6.2664,-6.2666,-6.2681,-6.2726,-6.2767,-6.2767,-6.2784,-6.2816,-6.281,-6.2671,-6.2651,-6.2632,-6.2612,-6.2821,-6.2821,-6.2953,-6.2955,-6.2956]},{"header":{"parameterUnit":"m.s-1","parameterCategory":1,"la1":30.2991,"la2":30.254,"lo1":-89.0895,"lo2":-89.0444,"dy":0.0017,"dx":0.0017,"nx":28,"ny":28,"refTime":"2024-12-25T03:00:00:Z","depth":0,"parameterNumber":3,"parameterNumberName":"V-component_of_WINDS"},"data":[0,0,0,0,0,0,0,0,0,0,0,0,0,0,0,0,0,0,0,0,0,0,0,0,0,0,0,0,0,0,0,0,0,0,0,0,0,0,0,0,0,0,0,0,0,0,0,0,0,0,0,0,0,0,0,0,0,0,0.5705,0.5705,0,0.5715,0.5715,0.5715,0.5714,0.5714,0.5713,0.5713,0.5722,0.5722,0.5723,0,0,0,0,0,0,0,0,0,0,0,0,0,0.5687,0.5687,0.5705,0.5705,0.5705,0.5715,0.5715,0.5715,0.5714,0.5714,0.5713,0.5713,0.5722,0.5722,0.5723,0,0,0,0,0,0,0,0,0,0,0,0,0,0.5695,0.5687,0.5705,0.5706,0.5706,0.5715,0.5715,0.5715,0.5714,0.5714,0.5713,0.5713,0.5722,0.5722,0.5723,0.5731,0,0,0.5724,0.5725,0,0,0,0,0,0,0,0,0.5695,0.5696,0.5706,0.5706,0.5706,0.5713,0.5712,0.572,0.5714,0.5711,0.5713,0.5713,0.5719,0.572,0.5722,0.5731,0.5732,0.5725,0.5725,0.5725,0.5725,0,0,0,0,0,0,0,0.5694,0.5696,0.5709,0.5706,0.5706,0.5706,0.5707,0.5713,0.5716,0.5711,0.5711,0.5712,0.5719,0.5722,0.5722,0.5732,0.5725,0.5725,0.5725,0.5726,0.5752,0.5752,0,0,0,0,0,0,0.5694,0.5695,0.5709,0.5709,0.57,0.5707,0.5708,0.5711,0.5716,0.5717,0.5712,0.5712,0.5721,0.5722,0.5723,0.5734,0.5725,0.5726,0.5726,0.5751,0.5752,0.5752,0,0,0,0,0,0,0.5693,0.5695,0.5708,0.5702,0.5704,0.5707,0.5711,0.5711,0.5714,0.5717,0.5718,0.5714,0.5721,0.5722,0.573,0.5735,0.5726,0.5726,0.5751,0.5751,0.5752,0.5757,0,0,0,0,0,0,0.5693,0.5695,0.5697,0.5702,0.5704,0.5715,0.5711,0.5712,0.5715,0.5714,0.5719,0.5719,0.572,0.5729,0.573,0.5735,0.5727,0.575,0.5751,0.5752,0.5756,0.5758,0.5759,0,0,0,0,0,0.5692,0.5697,0.5697,0.5699,0.5708,0.5715,0.5716,0.5717,0.5715,0.5718,0.5721,0.5719,0.5734,0.573,0.5731,0.5736,0.575,0.5751,0.5752,0.5756,0.5757,0.5759,0,0,0,0,0,0,0.5691,0.5698,0.5698,0.5705,0.571,0.5715,0.5718,0.5719,0.5723,0.5723,0.5724,0.5725,0.5734,0.5736,0.5731,0.5746,0.5742,0.5743,0.5744,0.5746,0.5747,0.5746,0.5727,0,0,0,0,0,0.5692,0.5698,0.5703,0.5709,0.5711,0.5715,0.5718,0.5719,0.5723,0.5725,0.5728,0.5733,0.5739,0.5742,0.5748,0.5757,0.5759,0.5762,0.5763,0.5764,0.5765,0.5772,0.5774,0.5755,0.5755,0.5755,0,0,0.5693,0.5698,0.5701,0.5709,0.5712,0.5719,0.5716,0.5722,0.5727,0.5726,0.5734,0.5737,0.5742,0.5752,0.5756,0.5754,0.5771,0.5765,0.5765,0.5766,0.5773,0.5775,0.5777,0.5755,0.5755,0.5755,0,0,0.5699,0.5703,0.5709,0.5714,0.572,0.5723,0.5724,0.573,0.5733,0.5741,0.5741,0.5748,0.5757,0.5762,0.5765,0.5777,0.5776,0.5779,0.5784,0.5792,0.5793,0.5795,0.5801,0.5803,0.578,0.578,0.578,0,0.57,0.5709,0.5712,0.5719,0.5724,0.5725,0.5732,0.5736,0.5744,0.5747,0.5745,0.5759,0.5762,0.5774,0.5777,0.5779,0.5782,0.5778,0.5793,0.5794,0.5796,0.5801,0.5803,0.578,0.578,0.578,0.578,0,0.5711,0.5718,0.5722,0.5731,0.5736,0.5743,0.5748,0.5753,0.5754,0.5758,0.5768,0.5773,0.578,0.5783,0.5784,0.5796,0.5795,0.5793,0.5788,0.5798,0.5803,0.5805,0.578,0.578,0.578,0.578,0,0,0.5714,0.5727,0.5729,0.5734,0.5743,0.5749,0.5757,0.5766,0.5771,0.5777,0.5784,0.5794,0.5794,0.5798,0.5799,0.5806,0.5817,0.5803,0.5803,0.5807,0.5833,0.5835,0.5838,0.5817,0.5818,0.5818,0.5833,0,0.5722,0.5737,0.5741,0.5754,0.5761,0.5764,0.5772,0.5779,0.5783,0.579,0.5795,0.5803,0.58,0.5803,0.581,0.5814,0.5823,0.5813,0.5825,0.5826,0.5825,0.584,0.5842,0.5856,0.5835,0.5836,0.5836,0,0.5732,0.574,0.5754,0.5765,0.5768,0.5775,0.5785,0.5792,0.5801,0.5804,0.581,0.5812,0.5822,0.5818,0.5832,0.5826,0.5831,0.5835,0.5836,0.5837,0.5832,0.5843,0.586,0.5863,0.5839,0.5839,0.5839,0,0.5734,0.5749,0.576,0.5765,0.5777,0.5782,0.5788,0.5796,0.5802,0.5811,0.5816,0.5825,0.583,0.5838,0.5843,0.5839,0.5858,0.5853,0.5862,0.5862,0.5865,0.5865,0.5885,0.5868,0.5868,0.5868,0.5868,0,0.5743,0.5751,0.5762,0.5769,0.578,0.5786,0.5796,0.5802,0.581,0.5819,0.5822,0.583,0.5836,0.5845,0.5849,0.5862,0.5864,0.5867,0.5868,0.5867,0.5867,0.5871,0.5871,0.5868,0.5868,0.5868,0.5868,0,0.5747,0.5754,0.5767,0.5779,0.5782,0.579,0.5801,0.5808,0.5814,0.5825,0.5828,0.5837,0.5848,0.5855,0.5868,0.5871,0.5886,0.5886,0.5883,0.5884,0.5893,0.5892,0.5916,0.592,0.5899,0.59,0.59,0,0.5751,0.5759,0.5773,0.578,0.5786,0.5796,0.5803,0.581,0.5817,0.583,0.5836,0.5849,0.5858,0.5877,0.5885,0.5896,0.5897,0.5905,0.5899,0.5899,0.5899,0.5899,0.5901,0.5906,0.5906,0.5906,0.5906,0,0.576,0.5764,0.5774,0.5787,0.5796,0.5806,0.5816,0.5821,0.583,0.5838,0.5851,0.5859,0.5875,0.5888,0.59,0.5906,0.5908,0.5908,0.5911,0.591,0.5909,0.5912,0.5887,0.5907,0.5907,0.5907,0.5907,0.5907,0.5765,0.5773,0.5785,0.5797,0.5806,0.5816,0.5825,0.5833,0.5844,0.5858,0.5862,0.5876,0.5888,0.5905,0.5912,0.5924,0.5922,0.5926,0.5927,0.5928,0.5929,0.5907,0.5926,0.5926,0.5926,0.5926,0.5926,0,0.5775,0.5784,0.5795,0.581,0.5821,0.5823,0.5835,0.5844,0.5856,0.5867,0.5878,0.5895,0.5908,0.5918,0.5932,0.5939,0.5941,0.5943,0.5942,0.5944,0.5929,0.5926,0.5941,0.5941,0.5941,0.5941,0.5941,0.5941,0.5781,0.5795,0.5802,0.5821,0.583,0.5845,0.5852,0.5862,0.5871,0.589,0.5901,0.5909,0.592,0.5935,0.5948,0.5951,0.5956,0.5959,0.5961,0.5947,0.5945,0.5943,0.5941,0.5959,0.5959,0.5976,0.5977,0.5977]}]]